Regional Weather Roundup
Issued by NWS Northern Indiana

Home | Current Version | Previous Version | Text Only | Print | Product List | Glossary Off
Versions: 1 2 3 4 5 6 7 8 9 10 11 12 13 14 15 16 17 18 19 20 21 22 23 24 25 26 27 28 29 30 31 32 33 34 35 36 37 38 39 40 41 42 43 44 45 46 47 48 49 50

000
ASUS43 KIWX 271600
RWRIWX

KIWX WEATHER ROUNDUP
NATIONAL WEATHER SERVICE NORTHERN INDIANA
1100 AM EST THU NOV 27 2014

NOTE: "FAIR" INDICATES FEW OR NO CLOUDS BELOW 12,000 FEET WITH NO
SIGNIFICANT WEATHER AND/OR OBSTRUCTIONS TO VISIBILITY.

* THESE STATIONS ARE NOT UNDER NWS QUALITY CONTROL. THEY ALSO MAY NOT
  REPORT WEATHER SUCH AS PRECIPITATION OR FOG.

INZ001>027-271700-
NORTHERN INDIANA

CITY           SKY/WX    TMP DP  RH WIND       PRES   REMARKS
GARY*          PTSUNNY   30  21  69 NW9       30.33R WCI  22
SOUTH BEND     SNOW      30  28  92 W8        30.26R VSB 1/2 WCI  22
GOSHEN         LGT SNOW  30  28  92 W8        30.24R VSB 1   WCI  22
ANGOLA*        PTSUNNY   30  23  74 W7        30.21R WCI  23
FORT WAYNE     CLOUDY    30  25  81 W14       30.25R WCI  19

$$
INZ028>050-271700-
CENTRAL INDIANA

CITY           SKY/WX    TMP DP  RH WIND       PRES   REMARKS
LAFAYETTE      CLOUDY    26  21  81 W9        30.34R WCI  17
KOKOMO*        CLOUDY    28  25  86 W13       30.29R WCI  18
MUNCIE*        LGT SNOW  29  25  85 W12       30.27R FOG     WCI  19
INDIANAPOLIS   LGT SNOW  29  23  78 W12       30.32R FOG     WCI  19

$$
MIZ043>046-050>051-056>058-064>065-071>073-077>080-271700-
SOUTHWEST LOWER MICHIGAN

CITY           SKY/WX    TMP DP  RH WIND       PRES   REMARKS
BATTLE CREEK   LGT SNOW  30  25  81 W9        30.20R WCI  22
BENTON HARBOR  LGT SNOW  31  26  82 NW13G22   30.25R WCI  21
COLDWATER*     LGT SNOW  31  27  85 W10       30.20S WCI  22
HILLSDALE*     CLOUDY    30  23  76 W9        30.18R WCI  21
HOLLAND        LGT SNOW  31  26  82 N6        30.22R WCI  25
GRAND RAPIDS   SNOW      29  26  89 W5        30.20R VSB 1/2 WCI  24
KALAMAZOO      LGT SNOW  30  27  88 SW5       30.21R VSB 1   WCI  25
STURGIS*       LGT SNOW  28  27  93 CALM      30.21R VSB 1
THREE RIVERS*  LGT SNOW  31  29  90 W6        30.22S WCI  26

$$
OHZ001>008-015>018-024>025-271700-
NORTHWEST OHIO

CITY           SKY/WX    TMP DP  RH WIND       PRES   REMARKS
DEFIANCE       PTSUNNY   33  22  63 NW14      30.23R WCI  23
FINDLAY        PTSUNNY   34  20  56 NW13      30.20R WCI  25
TOLEDO EXPRESS CLOUDY    32  21  64 W12       30.20R WCI  23
TOLEDO METCALF CLOUDY    33  20  58 NW13      30.21R WCI  24
LIMA           CLOUDY    33  19  56 N10       30.20R WCI  25

$$
AND FOR LAKE MICHIGAN COASTAL AND OPEN LAKE BUOY OBSERVATIONS

STATION/POSITION TEMP    WIND        PRES    VSBY  WAVE
                 AIR SEA DIR/SP/G                  HT/PER
                 (F)     (DEG/KT/KT) (MB)    (MI)  (FT/S)
CALUMET HARBOR    28     270/  5/  9 1025.3R
MICHIGAN CITY     29     270/ 19/ 22   N/A
SAINT JOSEPH      33     290/ 15/ 19 1024.4R
SOUTH LAKE BUOY   31 42  310/ 21/ 25 1024.7R         5/ 5

$$
&&


USA.gov is the U.S. government's official web portal to all federal, state and local government web resources and services.